TimeEST,TemperatureF,Dew PointF,Humidity,Sea Level PressureIn,VisibilityMPH,Wind Direction,Wind SpeedMPH,Gust SpeedMPH,PrecipitationIn,Events,Conditions,WindDirDegrees,DateUTC
12:53 AM,41.0,28.0,60,30.01,10.0,NW,6.9,-,N/A,,Overcast,310,2013-03-03 05:53:00
1:53 AM,39.9,28.0,63,30.01,10.0,WNW,5.8,-,N/A,,Overcast,300,2013-03-03 06:53:00
2:53 AM,39.9,27.0,60,30.01,10.0,NW,6.9,-,N/A,,Overcast,310,2013-03-03 07:53:00
3:53 AM,37.9,27.0,65,30.01,10.0,NW,10.4,-,N/A,,Overcast,310,2013-03-03 08:53:00
4:53 AM,37.9,27.0,65,30.01,10.0,NW,11.5,-,N/A,,Scattered Clouds,310,2013-03-03 09:53:00
5:53 AM,36.0,27.0,70,30.02,10.0,WNW,8.1,-,N/A,,Clear,300,2013-03-03 10:53:00
6:53 AM,35.1,27.0,72,30.03,10.0,WNW,6.9,-,N/A,,Clear,290,2013-03-03 11:53:00
7:53 AM,37.0,28.0,70,30.05,10.0,WNW,8.1,-,N/A,,Overcast,300,2013-03-03 12:53:00
8:53 AM,37.9,25.0,60,30.06,10.0,NW,9.2,-,N/A,,Overcast,320,2013-03-03 13:53:00
9:32 AM,37.4,26.6,65,30.07,9.0,NNW,9.2,-,N/A,,Overcast,330,2013-03-03 14:32:00
9:53 AM,37.0,27.0,67,30.07,9.0,NNW,8.1,-,N/A,,Overcast,330,2013-03-03 14:53:00
10:26 AM,37.4,28.4,70,30.07,10.0,NW,8.1,-,0.00,,Overcast,310,2013-03-03 15:26:00
10:53 AM,39.0,28.9,67,30.07,10.0,NW,3.5,-,0.00,,Overcast,310,2013-03-03 15:53:00
11:12 AM,39.2,28.4,65,30.07,10.0,West,10.4,-,N/A,,Overcast,280,2013-03-03 16:12:00
11:28 AM,39.2,26.6,61,30.07,10.0,WNW,9.2,-,N/A,,Overcast,290,2013-03-03 16:28:00
11:53 AM,41.0,25.0,53,30.06,10.0,WNW,10.4,-,N/A,,Overcast,300,2013-03-03 16:53:00
12:53 PM,42.1,24.1,49,30.05,10.0,WNW,17.3,24.2,N/A,,Overcast,290,2013-03-03 17:53:00
1:53 PM,41.0,24.1,51,30.04,10.0,NW,18.4,23.0,N/A,,Overcast,310,2013-03-03 18:53:00
2:53 PM,43.0,21.0,42,30.03,10.0,WNW,12.7,-,N/A,,Overcast,300,2013-03-03 19:53:00
3:53 PM,43.0,21.0,42,30.02,10.0,NW,9.2,18.4,N/A,,Partly Cloudy,310,2013-03-03 20:53:00
4:53 PM,45.0,21.9,40,30.03,10.0,WNW,11.5,-,N/A,,Partly Cloudy,290,2013-03-03 21:53:00
5:53 PM,43.0,21.9,43,30.05,10.0,West,10.4,-,N/A,,Clear,280,2013-03-03 22:53:00
6:53 PM,39.9,24.1,53,30.06,10.0,West,3.5,-,N/A,,Clear,270,2013-03-03 23:53:00
7:53 PM,37.9,25.0,60,30.08,10.0,Calm,Calm,-,N/A,,Clear,0,2013-03-04 00:53:00
8:53 PM,33.1,27.0,78,30.10,10.0,Calm,Calm,-,N/A,,Clear,0,2013-03-04 01:53:00
9:53 PM,32.0,27.0,82,30.12,10.0,SW,3.5,-,N/A,,Clear,230,2013-03-04 02:53:00
10:53 PM,33.1,25.0,72,30.12,10.0,WSW,4.6,-,N/A,,Clear,250,2013-03-04 03:53:00
11:53 PM,30.9,25.0,79,30.12,10.0,WSW,3.5,-,N/A,,Clear,240,2013-03-04 04:53:00